Litchfield, MN

9:53 PM CST on February 12, 2016 (GMT -0600)
Litchfield Municipal

Weather History for KLJF - March, 2015

Change the Weather History Date:

Wednesday, March 18, 2015

  Actual Average Record
Temperature  
Mean Temperature 36 °F -  
Max Temperature 42 °F 40 °F 77 °F (2012)
Min Temperature 30 °F 22 °F -5 °F (1967)
Degree Days  
Heating Degree Days 29    
Moisture  
Dew Point 25 °F    
Average Humidity 69    
Maximum Humidity 100    
Minimum Humidity 33    
Precipitation  
Precipitation 0.00 in - - ()
Sea Level Pressure  
Sea Level Pressure 30.28 in    
Wind  
Wind Speed 0 mph (SW)    
Max Wind Speed 5 mph    
Max Gust Speed -    
Visibility 10 miles    
Events Rain    
Averages and records for this station are not official NWS values.
T = Trace of Precipitation, MM = Missing Value Source: NWS Daily Summary

Daily Weather History Graph

Daily Weather History Graph

Search for Another Location

Airport or City:

Trip Planner

Search our weather history database for the weather conditions in past years. The results will help you decide how hot, cold, wet, or windy it might be!

Date:

Astronomy

Mar. 18, 2015 Rise Set
Actual Time 7:25 AM CDT 7:27 PM CDT
Civil Twilight 6:56 AM CDT 7:57 PM CDT
Nautical Twilight 6:21 AM CDT 8:31 PM CDT
Astronomical Twilight 5:46 AM CDT 9:06 PM CDT
Moon 6:14 AM CDT (3/18) 5:40 PM CDT (3/18)
Length of Visible Light 13h 01m
Length of Day
12h 02m
Waning Crescent, 4% of the Moon is Illuminated
Mar 18
Waning Crescent
Mar 20
New
Mar 27
First Quarter
Apr 4
Full
Apr 11
Last Quarter

Hourly Weather History & Observations

Time (CDT) Temp. Windchill Dew Point Humidity Pressure Visibility Wind Dir Wind Speed Gust Speed Precip Events Conditions
12:13 AM 33.8 °F - 21.2 °F 60% 30.35 in 10.0 mi Calm Calm - N/A   Clear
12:33 AM 33.8 °F - 21.2 °F 60% 30.35 in 10.0 mi Calm Calm - N/A   Clear
12:52 AM 33.8 °F - 21.2 °F 60% 30.35 in 10.0 mi Calm Calm - N/A   Clear
1:13 AM 33.8 °F - 19.4 °F 56% 30.34 in 10.0 mi Calm Calm - N/A   Clear
1:33 AM 33.8 °F - 19.4 °F 56% 30.34 in 10.0 mi Calm Calm - N/A   Clear
1:52 AM 32.0 °F - 21.2 °F 64% 30.34 in 10.0 mi Calm Calm - N/A   Clear
2:12 AM 32.0 °F - 19.4 °F 60% 30.34 in 10.0 mi Calm Calm - N/A   Clear
2:33 AM 32.0 °F - 19.4 °F 60% 30.34 in 10.0 mi Calm Calm - N/A   Clear
2:53 AM 33.8 °F - 19.4 °F 56% 30.34 in 10.0 mi Calm Calm - N/A   Clear
3:12 AM 33.8 °F - 19.4 °F 56% 30.34 in 10.0 mi Calm Calm - N/A   Clear
3:33 AM 33.8 °F - 17.6 °F 52% 30.34 in 10.0 mi Calm Calm - N/A   Clear
3:53 AM 32.0 °F - 17.6 °F 55% 30.34 in 10.0 mi Calm Calm - N/A   Clear
4:12 AM 33.8 °F - 17.6 °F 52% 30.33 in 10.0 mi Calm Calm - N/A   Clear
4:33 AM 30.2 °F - 19.4 °F 64% 30.33 in 10.0 mi Calm Calm - N/A   Clear
4:53 AM 30.2 °F - 19.4 °F 64% 30.32 in 10.0 mi Calm Calm - N/A   Clear
5:12 AM 30.2 °F - 17.6 °F 60% 30.32 in 10.0 mi Calm Calm - N/A   Clear
5:33 AM 30.2 °F - 17.6 °F 60% 30.32 in 10.0 mi Calm Calm - N/A   Clear
5:53 AM 30.2 °F - 19.4 °F 64% 30.32 in 10.0 mi Calm Calm - N/A   Clear
6:12 AM 30.2 °F - 19.4 °F 64% 30.31 in 10.0 mi Calm Calm - N/A   Clear
6:33 AM 30.2 °F - 19.4 °F 64% 30.31 in 10.0 mi Calm Calm - N/A   Clear
6:53 AM 30.2 °F - 21.2 °F 69% 30.31 in 10.0 mi Calm Calm - N/A   Clear
7:12 AM 30.2 °F - 21.2 °F 69% 30.31 in 10.0 mi Calm Calm - N/A   Clear
7:33 AM 30.2 °F - 21.2 °F 69% 30.31 in 10.0 mi Calm Calm - N/A   Clear
7:53 AM 30.2 °F - 21.2 °F 69% 30.31 in 10.0 mi Calm Calm - N/A   Clear
8:12 AM 30.2 °F - 26.6 °F 86% 30.31 in 10.0 mi Calm Calm - N/A   Clear
8:33 AM 33.8 °F - 24.8 °F 70% 30.31 in 10.0 mi Calm Calm - N/A   Clear
8:52 AM 33.8 °F - 26.6 °F 75% 30.30 in 10.0 mi Calm Calm - N/A   Clear
9:13 AM 33.8 °F - 24.8 °F 70% 30.30 in 10.0 mi Calm Calm - N/A   Scattered Clouds
9:33 AM 35.6 °F - 21.2 °F 56% 30.30 in 10.0 mi Calm Calm - N/A   Scattered Clouds
9:52 AM 37.4 °F - 23.0 °F 56% 30.30 in 10.0 mi Calm Calm - N/A   Clear
10:13 AM 37.4 °F - 21.2 °F 52% 30.30 in 10.0 mi Calm Calm - N/A   Scattered Clouds
10:33 AM 39.2 °F - 21.2 °F 49% 30.31 in 10.0 mi Calm Calm - N/A   Scattered Clouds
10:52 AM 39.2 °F - 17.6 °F 42% 30.31 in 10.0 mi Calm Calm - N/A   Clear
11:13 AM 39.2 °F - 15.8 °F 39% 30.31 in 10.0 mi Calm Calm - N/A   Clear
11:33 AM 39.2 °F - 15.8 °F 39% 30.31 in 10.0 mi Calm Calm - N/A   Clear
11:52 AM 41.0 °F - 15.8 °F 36% 30.31 in 10.0 mi Calm Calm - N/A   Clear
12:13 PM 41.0 °F - 14.0 °F 33% 30.30 in 10.0 mi Calm Calm - N/A   Clear
12:33 PM 41.0 °F - 15.8 °F 36% 30.30 in 10.0 mi Calm Calm - N/A   Clear
12:52 PM 42.8 °F - 15.8 °F 34% 30.29 in 10.0 mi Calm Calm - N/A   Clear
1:13 PM 41.0 °F - 17.6 °F 39% 30.29 in 10.0 mi Calm Calm - N/A   Clear
1:32 PM 41.0 °F - 19.4 °F 42% 30.28 in 10.0 mi Calm Calm - N/A   Clear
1:53 PM 41.0 °F 38.0 °F 17.6 °F 39% 30.28 in 10.0 mi SW 4.6 mph - N/A   Clear
2:12 PM 41.0 °F - 19.4 °F 42% 30.28 in 10.0 mi Calm Calm - N/A   Clear
2:33 PM 41.0 °F - 19.4 °F 42% 30.26 in 10.0 mi Calm Calm - N/A   Clear
2:53 PM 41.0 °F - 23.0 °F 49% 30.26 in 10.0 mi Calm Calm - N/A   Clear
3:12 PM 39.2 °F - 24.8 °F 56% 30.26 in 10.0 mi Calm Calm - N/A   Clear
3:33 PM 39.2 °F - 26.6 °F 61% 30.25 in 10.0 mi Calm Calm - N/A   Clear
3:53 PM 37.4 °F - 28.4 °F 70% 30.25 in 10.0 mi Calm Calm - N/A   Clear
4:12 PM 37.4 °F - 30.2 °F 75% 30.25 in 7.0 mi Calm Calm - N/A Rain Light Rain
4:33 PM 37.4 °F - 33.8 °F 87% 30.25 in 10.0 mi Calm Calm - N/A Rain Light Rain
4:53 PM 37.4 °F - 33.8 °F 87% 30.24 in 10.0 mi Calm Calm - N/A Rain Light Rain
5:12 PM 35.6 °F - 33.8 °F 93% 30.24 in 10.0 mi Calm Calm - N/A   Light Drizzle
5:33 PM 35.6 °F - 33.8 °F 93% 30.24 in 10.0 mi Calm Calm - N/A   Clear
5:53 PM 35.6 °F - 33.8 °F 93% 30.23 in 10.0 mi Calm Calm - N/A   Light Drizzle
6:12 PM 35.6 °F - 33.8 °F 93% 30.23 in 10.0 mi Calm Calm - N/A   Light Drizzle
6:33 PM 35.6 °F - 33.8 °F 93% 30.23 in 4.0 mi Calm Calm - N/A Rain Light Rain
6:53 PM 35.6 °F - 33.8 °F 93% 30.22 in 3.0 mi Calm Calm - N/A Rain Rain
7:12 PM 33.8 °F - 33.8 °F 100% 30.22 in 3.0 mi Calm Calm - N/A Rain Light Rain
7:33 PM 33.8 °F - 33.8 °F 100% 30.22 in 5.0 mi Calm Calm - N/A Rain Light Rain
7:53 PM 33.8 °F - 33.8 °F 100% 30.21 in 5.0 mi Calm Calm - N/A   Overcast
8:12 PM 33.8 °F - 33.8 °F 100% 30.20 in 7.0 mi Calm Calm - N/A   Scattered Clouds
8:33 PM 33.8 °F - 33.8 °F 100% 30.21 in 10.0 mi Calm Calm - N/A   Mostly Cloudy
8:53 PM 33.8 °F - 33.8 °F 100% 30.21 in 10.0 mi Calm Calm - N/A   Mostly Cloudy
9:12 PM 33.8 °F - 33.8 °F 100% 30.22 in 10.0 mi Calm Calm - N/A   Overcast
9:33 PM 33.8 °F - 33.8 °F 100% 30.21 in 10.0 mi Calm Calm - N/A   Overcast
9:53 PM 33.8 °F - 33.8 °F 100% 30.22 in 10.0 mi Calm Calm - N/A   Overcast
10:12 PM 33.8 °F - 33.8 °F 100% 30.21 in 10.0 mi Calm Calm - N/A   Overcast
10:33 PM 33.8 °F - 33.8 °F 100% 30.22 in 10.0 mi Calm Calm - N/A   Overcast
10:53 PM 33.8 °F - 33.8 °F 100% 30.22 in 10.0 mi Calm Calm - N/A   Overcast
11:12 PM 33.8 °F - 33.8 °F 100% 30.21 in 10.0 mi Calm Calm - N/A   Overcast
11:33 PM 33.8 °F - 33.8 °F 100% 30.21 in 10.0 mi Calm Calm - N/A   Overcast
11:53 PM 33.8 °F - 33.8 °F 100% 30.21 in 10.0 mi Calm Calm - N/A   Overcast